Torna al catalogo

CZ-6A DEB

AttivoPO
NORAD 54630·DEBRIS·🇨🇳 China

Lanciato Nov 11, 2022 da Taiyuan Satellite Launch Center

Loading…

Prossimi Passaggi (prossime 24 ore)

TLE

AggiornatoSource: Space-Track

Epoca: Sep 13, 2026, 17:26 UTC

1 54630U 22151PG  26256.72706374  .00009415  00000-0  11882-2 0  9997
2 54630  98.6236 334.4316 0056122 349.5454  10.4584 14.81052163202544

Traccia CZ-6A DEB in tempo reale con AllMySat

Download on the App Store